EW2692 Weather Reports


Display with metric or nautical units.
time (UTC)temp
F
wind
direction
speed
MPH
gust
MPH
rain 1hr
in
rain 24hr
in
rain mn
in
humidity
%
barometer
mb
20260504023016 63 289 6.0 17.0 0.00 0.00 0.00 35 929.4
20260504021513 69 329 10.0 19.0 0.00 0.00 0.00 31 928.9
20260504020013 69 273 8.0 16.0 0.00 0.00 0.00 30 928.0
20260504014531 70 288 12.0 23.0 0.00 0.00 0.00 29 927.9
20260504013011 71 301 8.0 19.0 0.00 0.00 0.00 29 928.0
20260504011511 72 323 9.0 20.0 0.00 0.00 0.00 28 928.0
20260504010010 73 313 13.0 26.0 0.00 0.00 0.00 28 928.0
20260504004511 73 308 13.0 25.0 0.00 0.00 0.00 27 928.1
20260504003023 74 286 13.0 26.0 0.00 0.00 0.00 24 928.0
20260504001508 76 296 15.0 27.0 0.00 0.00 0.00 20 928.0
20260504000007 77 304 16.0 30.0 0.00 0.00 0.00 18 928.0
20260503234520 76 267 16.0 27.0 0.00 0.00 0.00 22 928.1
20260503233004 76 325 14.0 24.0 0.00 0.00 0.00 21 928.2
20260503231503 77 273 13.0 23.0 0.00 0.00 0.00 19 928.1
20260503230104 76 257 11.0 30.0 0.00 0.00 0.00 21 928.3
20260503224557 76 257 10.0 21.0 0.00 0.00 0.00 25 928.6
20260503223059 75 306 15.0 27.0 0.00 0.00 0.00 25 929.1
20260503221554 74 302 11.0 22.0 0.00 0.00 0.00 25 929.4
20260503220051 76 286 12.0 22.0 0.00 0.00 0.00 23 929.9
20260503214547 76 268 11.0 21.0 0.00 0.00 0.00 22 930.2
20260503213059 75 227 11.0 23.0 0.00 0.00 0.00 21 930.6
20260503211542 75 264 11.0 27.0 0.00 0.00 0.00 22 930.9
20260503210053 75 282 9.0 19.0 0.00 0.00 0.00 24 931.2
20260503204547 75 230 10.0 20.0 0.00 0.00 0.00 24 931.5
20260503203034 74 273 12.0 21.0 0.00 0.00 0.00 25 931.8
20260503201532 71 288 11.0 20.0 0.00 0.00 0.00 25 932.1
20260503200031 72 277 10.0 20.0 0.00 0.00 0.00 26 932.4
20260503194528 73 250 10.0 17.0 0.00 0.00 0.00 26 932.7
20260503193034 72 265 10.0 17.0 0.00 0.00 0.00 27 933.2
20260503191522 72 255 8.0 27.0 0.00 0.00 0.00 27 933.5
20260503190027 71 269 9.0 26.0 0.00 0.00 0.00 30 933.9
20260503184532 72 264 8.0 20.0 0.00 0.00 0.00 30 934.3
20260503183012 71 263 11.0 28.0 0.00 0.00 0.00 30 934.5
20260503181510 71 291 10.0 20.0 0.00 0.00 0.00 30 934.8
20260503180018 70 281 12.0 23.0 0.00 0.00 0.00 31 935.2
20260503174506 70 284 12.0 21.0 0.00 0.00 0.00 31 935.7
20260503173002 69 298 14.0 21.0 0.00 0.00 0.00 32 935.8
20260503171600 69 244 8.0 17.0 0.00 0.00 0.00 37 935.9
20260503081511 34 297 0.0 0.0 0.00 0.00 0.00 75 940.9
20260503071510 35 297 0.0 1.0 0.00 0.00 0.00 74 941.1
20260503054548 39 298 0.0 0.0 0.00 0.00 0.00 65 941.3
20260503053049 41 298 0.0 1.0 0.00 0.00 0.00 62 941.2
20260503051551 41 298 0.0 1.0 0.00 0.00 0.00 63 941.2
20260503050048 39 298 0.0 1.0 0.00 0.00 0.00 67 941.3
20260503044546 39 298 0.0 0.0 0.00 0.00 0.00 66 941.4
20260503043043 40 298 0.0 1.0 0.00 0.00 0.00 62 941.5
20260503041537 42 298 0.0 0.0 0.00 0.00 0.00 58 941.5
20260503040045 44 298 0.0 0.0 0.00 0.00 0.00 57 941.6
20260503034545 45 298 0.0 0.0 0.00 0.00 0.00 56 941.5
20260503033040 46 298 0.0 0.0 0.00 0.00 0.00 52 941.6
20260503031539 49 298 0.0 0.0 0.00 0.00 0.00 48 941.5
20260503030046 52 298 0.0 1.0 0.00 0.00 0.00 44 941.4
20260503024531 54 298 0.0 1.0 0.00 0.00 0.00 41 941.3